Probability
3 2 1 0 1 3 3 1 0 0 0 0 0 1 1 1 0 0 0 0 0 0 0 0 0 0 0 0 0 0 1 1 1 2 2 2 1 0
2 1 0 0 1 2 3 2 1 0 0 0 0 1 1 0 0 0 0 0 0 0 0 0 0 0 0 0 0 0 0 0 0 1 1 1 1 0
1 0 0 0 1 1 2 2 1 0 0 0 0 0 0 0 0 0 0 0 0 0 0 0 0 0 0 0 0 0 0 0 0 0 0 0 0 0
0 0 0 0 0 0 1 1 0 0 0 0 0 0 0 0 0 0 0 0 0 0 0 0 0 0 0 0 0 0 0 0 0 0 0 0 0 0
0 0 0 0 0 0 0 0 0 0 0 0 0 0 0 0 0 0 0 0 0 0 0 0 0 0 0 0 0 0 0 0 0 0 0 0 0 0
0 0 0 0 0 0 0 0 0 0 0 0 0 0 0 0 0 0 0 0 0 0 0 0 0 0 0 0 0 0 0 0 0 0 0 0 0 0
0 0 0 0 0 0 0 0 0 0 0 0 0 0 0 0 0 0 0 0 0 0 0 0 0 0 0 0 0 0 0 0 0 0 0 0 0 0
0 0 0 0 0 0 0 0 0 0 0 0 0 0 0 0 0 0 0 0 0 0 0 0 0 0 0 0 0 0 0 0 0 0 0 0 0 0
0 0 0 0 0 0 0 0 0 0 0 0 0 0 0 0 0 0 0 0 0 0 0 0 0 0 0 0 0 0 0 0 0 0 0 0 0 0
0 0 0 0 0 0 0 0 0 0 0 0 0 0 0 0 0 0 0 0 0 0 0 0 0 0 0 0 0 0 0 0 0 0 0 0 0 0
0 0 0 0 0 0 0 0 0 0 0 0 0 0 0 0 0 0 0 0 0 0 0 0 0 0 0 0 0 0 0 0 0 0 0 0 0 0
0 0 0 0 0 0 0 0 0 0 0 0 0 0 0 0 0 0 0 0 0 0 0 0 0 0 0 0 0 0 0 0 0 0 0 0 0 0
0 0 0 0 0 0 0 0 0 0 0 0 0 0 0 0 0 0 0 0 0 0 0 0 0 0 0 0 0 0 0 0 0 0 0 0 0 0
0 0 0 0 0 0 0 0 0 0 0 0 0 0 0 0 0 0 0 0 0 0 0 0 1 1 0 0 0 0 0 0 0 0 0 0 0 0
0 0 0 0 0 0 0 0 0 0 0 0 0 0 0 0 0 0 0 0 1 0 0 1 3 3 1 0 0 0 0 0 1 1 1 0 0 0
0 0 0 0 0 0 0 0 0 0 0 0 0 0 0 0 0 0 0 0 0 0 0 2 5 6 4 2 0 0 0 1 2 2 2 1 0 0
0 0 0 0 0 0 0 0 0 0 0 0 0 0 0 0 0 0 0 0 0 0 0 2 5 6 5 3 2 1 1 2 2 3 2 1 0 0
0 0 0 0 0 0 0 0 0 1 1 0 0 0 0 0 0 0 0 0 0 0 0 1 2 3 3 2 2 2 1 1 1 1 2 1 0 0
0 0 0 0 0 0 1 1 1 1 2 1 0 0 0 0 0 0 0 0 0 0 0 0 0 0 0 1 1 1 1 0 0 1 2 1 0 0
0 0 1 1 1 1 2 1 1 1 2 1 0 0 0 0 0 0 0 0 0 0 0 0 0 0 0 0 0 0 0 0 1 1 1 1 0 0
0 1 2 2 2 2 2 1 0 0 1 1 0 0 0 0 0 0 0 0 0 0 0 0 0 0 0 0 0 0 0 0 0 0 0 0 0 0
1 2 3 3 2 1 1 0 0 0 0 0 0 0 0 0 0 0 0 0 0 0 0 0 0 0 0 0 0 0 0 0 0 0 0 0 0 0
3 3 3 2 1 0 0 0 0 0 0 0 0 0 0 0 0 0 0 0 0 0 0 0 0 0 0 0 0 0 0 0 0 0 0 0 0 0
Wind_Speed
3 3 3 2 2 2 2 2 2 2 2 1 1 1 1 1 3 3 2 4 5 5 5 5 5 5 6 6 5 5 5 5 5 5 6 7 7 7
2 3 3 2 2 2 2 2 2 2 2 1 1 2 1 1 3 3 2 5 6 7 7 7 7 6 6 6 6 6 6 6 6 6 6 6 7 7
3 3 3 3 2 2 2 2 2 1 2 2 1 2 2 2 2 2 2 3 4 8 8 8 8 7 7 6 6 6 5 5 6 6 7 7 7 7
3 3 3 3 3 3 2 3 2 2 2 3 2 2 2 2 3 3 3 3 3 6 9 9 8 8 8 7 7 6 6 6 6 6 7 7 7 8
3 3 3 3 3 2 3 3 2 2 1 2 2 2 2 2 2 3 4 3 3 4 7 9 9 9 9 9 8 8 7 7 7 7 8 8 8 8
3 2 2 3 3 4 3 3 2 2 2 2 2 2 2 2 2 2 2 2 2 2 3 5 8 11 11 10 10 9 9 8 8 8 8 8 8 8
3 3 2 2 3 3 3 3 3 2 2 2 2 1 1 1 2 2 2 2 2 2 1 2 3 4 6 9 10 10 10 9 9 8 8 8 8 8
3 3 3 3 3 3 5 5 4 3 3 2 2 2 2 2 2 3 2 2 2 1 1 2 2 3 4 5 9 12 12 11 10 10 9 9 8 8
3 3 4 4 3 3 4 4 5 6 6 4 3 3 3 2 2 3 2 2 3 2 1 3 3 3 3 5 10 12 12 12 11 11 10 10 10 10
3 3 3 3 4 5 5 4 3 3 5 4 4 4 4 2 3 4 4 4 4 3 3 3 3 3 3 2 8 11 12 12 12 12 12 11 11 11
4 3 3 2 3 5 4 4 4 4 4 4 5 6 6 6 4 2 3 3 3 2 2 2 2 2 2 2 5 11 12 12 12 12 12 12 12 10
3 2 2 2 3 3 3 4 4 5 5 4 4 5 6 7 7 5 4 3 3 2 2 2 2 1 2 2 2 4 6 9 11 12 12 12 11 6
3 2 2 4 5 5 4 3 5 6 5 5 4 4 4 4 4 5 5 4 4 3 3 2 2 2 2 2 2 3 5 5 5 7 10 12 11 9
4 3 2 5 7 8 6 7 8 7 5 4 4 4 4 3 4 4 6 6 5 5 4 3 2 3 2 3 3 2 3 3 4 4 5 8 10 12
5 6 7 9 9 8 9 9 7 5 4 4 4 4 4 4 3 3 4 5 5 6 6 5 5 4 4 4 4 3 3 3 3 4 4 5 5 5
4 6 8 10 9 9 8 6 5 5 5 4 4 4 4 3 3 3 3 3 4 4 6 7 7 6 5 5 4 4 4 4 4 4 4 4 5 5
5 5 5 5 4 4 4 4 5 5 5 4 4 4 4 4 3 3 3 3 4 4 4 4 6 6 7 5 5 5 5 4 4 5 4 5 5 5
4 5 6 5 5 4 4 4 4 4 4 4 4 4 4 4 4 4 3 4 4 4 4 4 3 3 4 5 7 6 5 5 4 4 4 5 5 5
4 6 6 5 5 4 4 4 4 4 3 4 4 4 4 4 4 4 4 4 4 4 4 4 3 3 4 5 6 8 6 5 4 4 5 5 6 5
5 5 5 5 4 4 4 4 4 3 3 4 4 4 4 4 4 4 4 4 4 4 4 4 4 5 5 5 5 4 8 7 5 6 6 5 5 5
5 5 4 4 4 4 4 4 4 4 4 4 4 4 4 4 4 5 4 5 5 4 5 5 5 7 5 4 4 4 5 9 9 6 5 4 4 4
5 5 5 5 5 4 4 4 4 4 4 4 4 4 4 4 5 5 5 5 4 5 5 5 5 4 4 5 6 6 6 5 7 10 9 7 4 4
4 5 5 5 5 4 4 5 5 4 4 4 4 5 5 4 4 5 5 5 5 5 5 5 4 3 4 5 5 5 6 5 3 3 5 9 11 10
Wind_Direction
300 300 294 293 287 278 262 249 249 276 273 260 285 282 252 184 184 214 210 208 203 209 216 217 218 218 218 217 220 218 217 217 218 219 214 206 208 209
297 304 304 299 302 298 287 271 249 248 274 261 254 262 272 263 224 249 227 209 211 211 215 216 215 211 212 213 213 212 215 220 220 217 211 208 211 212
315 318 316 311 314 310 309 304 288 254 261 281 279 277 279 262 250 261 242 215 212 213 210 211 210 206 207 209 209 206 213 216 215 215 215 215 214 217
323 328 333 331 334 335 333 322 302 268 248 266 273 270 268 252 246 249 253 242 224 213 207 209 208 205 206 208 210 208 210 215 218 221 221 220 220 221
331 337 336 336 338 330 315 310 302 306 274 265 268 266 262 260 260 264 260 258 242 205 204 209 208 208 209 212 213 212 214 218 220 220 220 221 223 224
337 334 337 333 330 318 308 308 308 306 286 268 263 259 264 268 263 262 273 263 260 225 206 203 208 210 212 212 214 215 216 219 219 219 221 223 224 224
334 324 323 328 321 306 310 314 313 299 295 289 278 280 280 281 278 275 270 266 259 234 219 218 199 203 210 216 218 218 217 219 221 221 222 223 224 223
313 309 295 285 284 281 280 280 275 281 291 286 277 273 275 272 278 282 286 281 276 246 229 255 214 211 212 205 208 208 212 216 220 222 221 220 221 223
303 300 307 322 337 321 295 275 252 245 241 252 266 268 268 269 280 284 280 274 265 259 249 257 226 228 227 215 201 203 207 212 217 221 222 223 223 225
287 292 298 307 336 330 310 308 292 270 246 232 245 256 259 262 258 260 260 265 261 248 223 246 241 233 233 204 203 201 207 213 217 219 221 223 225 227
286 298 297 314 333 331 316 313 312 303 289 268 245 247 254 258 255 275 268 265 272 260 223 234 249 247 233 218 211 207 211 214 218 222 224 224 226 226
291 295 311 295 296 319 314 312 308 309 318 308 286 265 249 247 235 222 242 254 268 268 235 220 248 253 268 242 206 200 216 224 223 226 226 226 221 216
294 296 297 300 299 298 290 276 274 289 296 287 278 267 253 243 227 216 221 226 241 252 241 213 241 252 244 262 252 218 206 213 212 223 226 223 217 207
290 293 285 293 295 292 283 269 274 285 279 278 275 268 258 252 244 228 217 220 224 234 242 234 236 241 247 256 261 247 233 219 211 211 211 210 217 219
294 296 290 284 286 279 264 263 268 262 258 263 268 269 261 251 246 241 228 222 227 237 239 230 229 238 235 240 248 243 245 240 224 219 214 206 207 205
289 295 287 276 269 266 270 261 243 244 247 252 257 263 266 256 246 240 239 235 233 242 240 232 227 230 240 240 238 242 236 233 229 224 218 220 219 211
319 292 285 283 272 261 259 261 251 243 243 248 254 258 259 256 255 254 248 244 244 246 248 238 229 227 233 235 244 245 240 238 231 223 222 230 229 222
303 283 280 278 282 282 275 269 264 260 252 253 255 255 258 259 257 252 247 247 254 256 250 249 243 235 241 245 229 241 249 247 242 229 225 235 241 230
263 272 274 274 278 279 279 279 276 271 263 261 259 258 260 263 263 261 254 253 254 256 252 240 232 237 254 264 253 223 229 242 241 239 230 230 240 233
254 267 276 279 277 280 284 283 281 281 278 276 271 265 260 262 266 266 262 260 263 265 267 256 241 235 241 252 260 249 226 230 236 244 245 237 236 236
288 287 291 296 297 290 284 283 286 287 283 278 277 275 271 267 269 271 272 273 265 266 270 265 255 253 252 251 255 254 244 230 226 231 239 240 243 239
293 303 307 307 305 302 297 293 294 294 295 293 289 280 274 273 274 275 274 272 264 260 262 265 265 261 256 256 261 264 262 252 237 242 244 234 228 230
300 301 300 302 304 305 307 306 306 305 303 304 305 303 298 288 281 278 275 272 271 271 273 272 271 264 258 256 261 267 273 268 249 234 243 244 240 245